Location: Double Diamond Ranch
(30.2800°N, 103.5900°W)
Time: 01:50:36
(UTC-06:00)

Amateur Radio Satellites - All Passes

Search period start: 22 January 2018 01:20
Search period end: 23 January 2018 01:20
Location: Double Diamond Ranch, 30.2800°N, 103.5900°W

Satellite Date Start Highest point End Downlink Frequencies (MHz)
Time Altitude Azimuth
DUCHIFAT 1 22 Jan 01:30:51 01:34:51 41° 286° (WNW) 01:38:49 145.980
EO-79 22 Jan 01:33:53 01:37:33 28° 288° (WNW) 01:41:12 145.935-145.965
50 SAT 22 Jan 01:44:40 01:47:16 26° 74° (ENE) 01:49:53 437.505
AO-91 22 Jan 02:10:09 02:14:52 71° 102° (ESE) 02:19:59 145.960
POLYITAN 1 22 Jan 02:11:29 02:12:37 11° 292° (WNW) 02:13:44 437.675
BUGSAT 1 22 Jan 02:27:24 02:31:26 43° 286° (WNW) 02:35:27 437.445
UKube-1 22 Jan 02:31:07 02:35:23 84° 77° (ENE) 02:39:41 .
Gurwin Techsat 1B 22 Jan 02:41:24 02:46:43 85° 101° (E) 02:52:02 435.225
ITUPSAT 1 22 Jan 02:43:46 02:46:31 15° 67° (ENE) 02:49:16 437.325
Oscar 19 22 Jan 02:45:56 02:51:00 62° 285° (WNW) 02:56:03 437.125/150
DX 1 22 Jan 02:46:03 02:49:59 34° 261° (W) 02:53:55 434.975-435.025
nSIGHT-1 22 Jan 02:58:18 02:59:26 11° 34° (NE) 03:00:35 .
MOZHAYETS 4 22 Jan 03:01:01 03:05:23 44° 74° (ENE) 03:09:47
FALCONSAT 3 22 Jan 03:06:38 03:10:05 39° 152° (SSE) 03:13:32 435.103
CUBESAT XI-V 22 Jan 03:10:19 03:12:04 12° 67° (ENE) 03:13:49 437.345
ISS 22 Jan 03:16:25 03:17:47 12° 34° (NE) 03:19:11 437.550
BEESAT 22 Jan 03:20:37 03:25:04 41° 73° (ENE) 03:29:32 436.000
AO-7 22 Jan 03:22:31 03:29:28 29° 98° (E) 03:36:19 .
ITAMSAT 1 22 Jan 03:55:28 03:59:41 25° 97° (E) 04:03:54 435.822/435.867
ITUPSAT 1 22 Jan 04:19:26 04:23:55 42° 261° (W) 04:28:26 437.325
nSIGHT-1 22 Jan 04:32:44 04:35:50 54° 229° (SW) 04:38:55 .
MOZHAYETS 4 22 Jan 04:40:38 04:42:40 13° 266° (W) 04:44:42
CUBESAT XI-V 22 Jan 04:44:21 04:48:55 52° 260° (W) 04:53:29 437.345
FALCONSAT 3 22 Jan 04:45:31 04:49:06 53° 346° (NNW) 04:52:42 435.103
ISS 22 Jan 04:51:18 04:54:30 55° 228° (SW) 04:57:41 437.550
BEESAT 22 Jan 05:00:18 05:02:55 15° 265° (W) 05:05:34 436.000
DOVE 4 22 Jan 05:04:46 05:08:48 32° 99° (E) 05:13:02 437.250
AO-7 22 Jan 05:14:21 05:22:19 51° 293° (WNW) 05:30:15 .
ITAMSAT 1 22 Jan 05:34:35 05:39:02 30° 290° (WNW) 05:43:30 435.822/435.867
SO-50 22 Jan 05:43:13 05:47:35 61° 299° (WNW) 05:52:01 436.795
M-CUBED/EXP-1 PRIME 22 Jan 05:54:26 05:57:42 87° 287° (WNW) 06:00:55 437.505
XW-2B 22 Jan 05:56:07 05:57:19 11° 94° (E) 05:58:30 145.730 - 145.750
KKS-1 22 Jan 05:56:54 06:01:13 58° 259° (W) 06:05:35 437.445
STARS 22 Jan 06:08:47 06:13:05 66° 75° (ENE) 06:17:24 437.465
RS-15 22 Jan 06:12:25 06:16:52 13° 98° (E) 06:21:19 29.354- 29.394
LilacSat-2 22 Jan 06:24:09 06:27:33 33° 98° (E) 06:30:56 437.200
XW-2C 22 Jan 06:24:36 06:27:55 30° 98° (E) 06:31:13 145.795 - 145.815
FALCONSAT 3 22 Jan 06:25:07 06:28:31 35° 1° (N) 06:31:55 435.103
STRAND 1 22 Jan 06:39:20 06:42:39 18° 68° (ENE) 06:45:58 437.568
DOVE 4 22 Jan 06:43:17 06:46:14 17° 289° (WNW) 06:49:16 437.250
KAITUO 1B 22 Jan 06:54:59 06:58:36 54° 100° (E) 07:02:10 145.475/437.950
XW-2F 22 Jan 06:59:11 07:02:55 89° 271° (W) 07:06:36 145.980 - 146.000
NUDT-PHONESAT 22 Jan 07:03:16 07:06:54 68° 100° (E) 07:10:31 437.300
XW-2D 22 Jan 07:10:15 07:13:53 51° 284° (WNW) 07:17:29 145.860 - 145.880
SEEDS 22 Jan 07:14:15 07:17:03 18° 95° (E) 07:19:50 437.485
CUTE-I 22 Jan 07:17:05 07:22:25 87° 284° (WNW) 07:27:45 437.470
XW-2B 22 Jan 07:28:12 07:31:29 30° 286° (WNW) 07:34:47 145.730 - 145.750
CUTE 1.7 + AOD 2 22 Jan 07:28:37 07:32:41 50° 100° (E) 07:36:44 437.475
FO-29 22 Jan 07:29:31 07:35:26 31° 71° (ENE) 07:40:47 435.910
HO-68 22 Jan 07:34:41 07:41:43 59° 102° (ESE) 07:48:44 435.675
CUBEBUG 2 22 Jan 07:55:37 08:00:21 69° 101° (E) 08:05:01 437.445
UWE-3 22 Jan 07:58:10 08:02:28 37° 98° (E) 08:06:41 435.000/436.395/437.385
XW-2C 22 Jan 08:00:15 08:01:44 12° 290° (WNW) 08:03:13 145.795 - 145.815
LilacSat-2 22 Jan 08:00:17 08:01:27 11° 291° (WNW) 08:02:35 437.200
FALCONSAT 3 22 Jan 08:04:16 08:07:55 61° 17° (NNE) 08:11:31 435.103
RS-15 22 Jan 08:15:10 08:27:23 75° 113° (ESE) 08:39:34 29.354- 29.394
STRAND 1 22 Jan 08:16:42 08:21:26 40° 260° (W) 08:26:14 437.568
ZACube-1 22 Jan 08:18:40 08:22:40 31° 97° (E) 08:26:34 437.345
AO-73 22 Jan 08:24:29 08:28:28 31° 97° (E) 08:32:20 145.935
AAUSAT CUBESAT 2 22 Jan 08:25:36 08:29:38 55° 100° (E) 08:33:37 437.432
XW-2A 22 Jan 08:33:57 08:37:14 58° 100° (E) 08:40:29 145.665 - 145.685
JUGNU 22 Jan 08:42:17 08:45:27 15° 163° (SSE) 08:48:35 437.505
SEEDS 22 Jan 08:49:13 08:52:39 25° 287° (WNW) 08:56:03 437.485
Oscar 11 22 Jan 08:55:47 08:59:53 43° 99° (E) 09:03:57 .
BEESAT 3 22 Jan 09:11:45 09:15:28 42° 113° (ESE) 09:19:14 437.485
YUBILEINY 22 Jan 09:13:11 09:15:37 11° 67° (ENE) 09:18:02 435.215
FO-29 22 Jan 09:13:55 09:20:18 36° 261° (W) 09:26:04 435.910
HO-68 22 Jan 09:23:46 09:28:50 21° 297° (WNW) 09:33:55 435.675
TIGRISAT 22 Jan 09:25:35 09:29:23 29° 72° (ENE) 09:33:16 435.000
UWE-3 22 Jan 09:35:43 09:38:31 16° 291° (WNW) 09:41:17 435.000/436.395/437.385
PCSat 22 Jan 09:37:58 09:43:15 58° 111° (ESE) 09:48:33 145.827
UNISAT 6 22 Jan 09:40:48 09:45:02 51° 75° (ENE) 09:49:24 437.425
FALCONSAT 3 22 Jan 09:43:35 09:46:51 31° 209° (SSW) 09:50:07 435.103
ZACube-1 22 Jan 09:55:35 09:58:37 18° 290° (WNW) 10:01:38 437.345
O/OREOS (USA 219) 22 Jan 09:55:36 09:56:21 10° 60° (ENE) 09:57:07 437.305
AO-73 22 Jan 10:01:24 10:04:23 18° 290° (WNW) 10:07:19 145.935
BEESAT 2 22 Jan 10:03:37 10:07:18 38° 113° (ESE) 10:11:03 435.950
DELFI C3 22 Jan 10:22:19 10:26:15 84° 103° (ESE) 10:30:10 145.870
JUGNU 22 Jan 10:29:09 10:33:53 26° 172° (S) 10:38:37 437.505
RS-15 22 Jan 10:30:38 10:40:55 30° 313° (NW) 10:51:10 29.354- 29.394
Oscar 11 22 Jan 10:33:58 10:35:35 12° 292° (WNW) 10:37:10 .
Max Valier Satellite 22 Jan 10:41:35 10:45:15 82° 283° (WNW) 10:48:53 145.860
AIST 2D 22 Jan 10:45:09 10:47:40 19° 73° (ENE) 10:50:11 435.315
BEESAT 3 22 Jan 10:51:24 10:53:09 13° 307° (NW) 10:54:54 437.485
AO-85 22 Jan 10:51:29 10:53:02 12° 107° (ESE) 10:54:33 145.980
EO-88 22 Jan 10:56:26 11:00:03 84° 282° (WNW) 11:03:38 145.990 - 145.960
PRISM 22 Jan 10:58:44 11:02:47 88° 76° (ENE) 11:06:51 437.425
TIGRISAT 22 Jan 11:03:05 11:06:02 18° 265° (W) 11:09:03 435.000
YUBILEINY 22 Jan 11:04:52 11:13:37 81° 84° (E) 11:22:18 435.215
POLYITAN 1 22 Jan 11:20:59 11:23:43 17° 70° (ENE) 11:26:27 437.675
PCSat 22 Jan 11:23:46 11:26:58 16° 306° (NW) 11:30:11 145.827
ESTCUBE 1 22 Jan 11:25:30 11:28:24 17° 95° (E) 11:31:16 437.505/2401.250
O/OREOS (USA 219) 22 Jan 11:31:40 11:36:03 55° 254° (WSW) 11:40:25 437.305
NANOSAT C BR1 22 Jan 11:34:29 11:37:40 21° 71° (ENE) 11:40:52 145.865
BEESAT 2 22 Jan 11:43:03 11:45:09 14° 307° (NW) 11:47:14 435.950
QB50P2 22 Jan 11:49:24 11:53:24 44° 74° (ENE) 11:57:26 145.880/145.840
LO-87 22 Jan 12:10:18 12:13:56 85° 282° (WNW) 12:17:32 145.935 - 145.965
DUCHIFAT 1 22 Jan 12:16:07 12:20:14 62° 76° (ENE) 12:24:23 145.980
JUGNU 22 Jan 12:17:25 12:22:24 29° 182° (S) 12:27:23 437.505
AIST 2D 22 Jan 12:18:24 12:20:40 16° 264° (W) 12:22:57 435.315
EO-79 22 Jan 12:19:27 12:23:39 84° 258° (WSW) 12:27:53 145.935-145.965
AO-85 22 Jan 12:29:22 12:32:56 35° 302° (WNW) 12:36:43 145.980
SPROUT 22 Jan 12:37:01 12:40:31 24° 97° (E) 12:43:59 437.525
SRMSAT 22 Jan 12:41:06 12:45:29 21° 167° (SSE) 12:49:54 437.500
VELOX 1 22 Jan 12:53:34 12:56:43 19° 96° (E) 12:59:52 145.980
POLYITAN 1 22 Jan 12:55:32 12:59:12 29° 262° (W) 13:02:53 437.675
ESTCUBE 1 22 Jan 13:01:14 13:05:10 31° 287° (WNW) 13:09:06 437.505/2401.250
AO-91 22 Jan 13:03:46 13:06:15 19° 72° (ENE) 13:08:45 145.960
YUBILEINY 22 Jan 13:04:53 13:09:15 15° 279° (W) 13:13:37 435.215
NANOSAT C BR1 22 Jan 13:09:55 13:13:11 22° 263° (W) 13:16:30 145.865
BUGSAT 1 22 Jan 13:10:48 13:14:44 54° 76° (ENE) 13:18:45 437.445
QB50P2 22 Jan 13:28:28 13:29:19 10° 267° (W) 13:30:10 145.880/145.840
Gurwin Techsat 1B 22 Jan 13:56:35 14:01:51 77° 76° (ENE) 14:07:10 435.225
Oscar 19 22 Jan 13:56:38 14:01:49 77° 258° (WSW) 14:07:02 437.125/150
JUGNU 22 Jan 14:06:30 14:10:54 22° 191° (SSW) 14:15:18 437.505
SPROUT 22 Jan 14:13:01 14:16:11 21° 289° (WNW) 14:19:22 437.525
AO-7 22 Jan 14:16:02 14:22:23 25° 61° (ENE) 14:28:44 .
SO-50 22 Jan 14:20:04 14:23:59 25° 56° (NE) 14:27:55 436.795
UKube-1 22 Jan 14:24:23 14:27:40 21° 97° (E) 14:30:55 .
SRMSAT 22 Jan 14:29:04 14:34:09 30° 177° (S) 14:39:16 437.500
VELOX 1 22 Jan 14:29:23 14:33:04 27° 288° (WNW) 14:36:46 145.980
50 SAT 22 Jan 14:35:20 14:38:21 47° 100° (E) 14:41:20 437.505
DX 1 22 Jan 14:39:15 14:43:33 60° 101° (ESE) 14:47:50 434.975-435.025
AO-91 22 Jan 14:41:05 14:42:41 13° 265° (W) 14:44:17 145.960
MOZHAYETS 4 22 Jan 15:02:52 15:05:45 16° 95° (E) 15:08:37
ITAMSAT 1 22 Jan 15:08:15 15:12:08 22° 68° (ENE) 15:16:00 435.822/435.867
RS-15 22 Jan 15:16:10 15:20:41 13° 27° (NNE) 15:25:06 29.354- 29.394
BEESAT 22 Jan 15:27:27 15:30:29 17° 95° (E) 15:33:32 436.000
JUGNU 22 Jan 15:58:01 15:59:18 11° 199° (SSW) 16:00:36 437.505
UKube-1 22 Jan 16:00:06 16:03:32 24° 289° (WNW) 16:06:58 .
SO-50 22 Jan 16:00:19 16:04:21 28° 249° (WSW) 16:08:25 436.795
DOVE 4 22 Jan 16:06:09 16:08:45 16° 71° (ENE) 16:11:17 437.250
AO-7 22 Jan 16:06:15 16:14:27 62° 256° (WSW) 16:22:44 .
NO-84 22 Jan 16:08:48 16:12:05 54° 128° (SE) 16:15:07 435.350 FM
SRMSAT 22 Jan 16:17:56 16:22:52 27° 187° (S) 16:27:50 437.500
ITUPSAT 1 22 Jan 16:25:11 16:30:01 79° 103° (ESE) 16:34:48 437.325
M-CUBED/EXP-1 PRIME 22 Jan 16:33:34 16:37:44 43° 71° (ENE) 16:41:39 437.505
MOZHAYETS 4 22 Jan 16:38:45 16:42:55 34° 287° (WNW) 16:47:04
CUBESAT XI-V 22 Jan 16:46:27 16:50:59 60° 101° (E) 16:55:29 437.345
ITAMSAT 1 22 Jan 16:46:42 16:51:19 33° 261° (W) 16:55:58 435.822/435.867
BEESAT 22 Jan 17:03:55 17:08:17 37° 288° (WNW) 17:12:39 436.000
RS-15 22 Jan 17:25:50 17:36:59 50° 56° (NE) 17:47:32 29.354- 29.394
KAITUO 1B 22 Jan 17:31:17 17:32:26 11° 70° (ENE) 17:33:34 145.475/437.950
XW-2F 22 Jan 17:34:55 17:37:31 18° 72° (ENE) 17:40:06 145.980 - 146.000
NUDT-PHONESAT 22 Jan 17:38:00 17:39:44 13° 70° (ENE) 17:41:28 437.300
DOVE 4 22 Jan 17:42:24 17:46:11 29° 262° (W) 17:49:52 437.250
XW-2D 22 Jan 17:45:34 17:48:52 28° 74° (ENE) 17:52:09 145.860 - 145.880
KKS-1 22 Jan 17:53:24 17:57:36 40° 100° (E) 18:01:47 437.445
HO-68 22 Jan 17:58:18 18:03:46 24° 65° (ENE) 18:09:13 435.675
XW-2B 22 Jan 18:02:49 18:06:30 47° 76° (ENE) 18:10:10 145.730 - 145.750
STARS 22 Jan 18:04:34 18:07:41 19° 96° (E) 18:10:48 437.465
SRMSAT 22 Jan 18:07:54 18:11:31 16° 196° (SSW) 18:15:08 437.500
M-CUBED/EXP-1 PRIME 22 Jan 18:10:17 18:12:05 12° 260° (W) 18:13:50 437.505
CUTE 1.7 + AOD 2 22 Jan 18:16:23 18:19:14 18° 71° (ENE) 18:22:04 437.475
CUTE-I 22 Jan 18:33:01 18:38:19 87° 76° (ENE) 18:43:38 437.470
XW-2C 22 Jan 18:33:11 18:36:57 59° 259° (W) 18:40:43 145.795 - 145.815
PCSat 22 Jan 18:33:14 18:36:15 15° 53° (NE) 18:39:14 145.827
LilacSat-2 22 Jan 18:33:35 18:37:21 52° 260° (W) 18:41:06 437.200
CUBEBUG 2 22 Jan 18:48:12 18:51:51 27° 72° (ENE) 18:55:35 437.445
UWE-3 22 Jan 18:50:34 18:53:06 15° 68° (ENE) 18:55:40 435.000/436.395/437.385
KAITUO 1B 22 Jan 19:02:36 19:06:01 33° 261° (W) 19:09:26 145.475/437.950
XW-2F 22 Jan 19:08:29 19:11:24 21° 264° (W) 19:14:20 145.980 - 146.000
NUDT-PHONESAT 22 Jan 19:09:59 19:13:14 28° 262° (W) 19:16:29 437.300
ZACube-1 22 Jan 19:10:22 19:12:14 12° 68° (ENE) 19:14:06 437.345
BEESAT 3 22 Jan 19:10:34 19:14:25 61° 62° (ENE) 19:18:10 437.485
AAUSAT CUBESAT 2 22 Jan 19:10:51 19:13:33 17° 71° (ENE) 19:16:15 437.432
AO-73 22 Jan 19:15:51 19:17:42 12° 68° (ENE) 19:19:35 145.935
XW-2D 22 Jan 19:21:09 19:23:00 13° 265° (W) 19:24:51 145.860 - 145.880
nSIGHT-1 22 Jan 19:29:01 19:32:07 60° 132° (SE) 19:35:13 .
KKS-1 22 Jan 19:31:29 19:33:44 14° 292° (WNW) 19:35:59 437.445
SEEDS 22 Jan 19:33:51 19:38:03 85° 258° (WSW) 19:42:16 437.485
RS-15 22 Jan 19:38:48 19:48:56 39° 254° (WSW) 19:58:43 29.354- 29.394
STARS 22 Jan 19:40:11 19:43:57 28° 288° (WNW) 19:47:42 437.465
HO-68 22 Jan 19:44:05 19:51:00 52° 259° (WSW) 19:57:57 435.675
Oscar 11 22 Jan 19:45:52 19:48:37 17° 70° (ENE) 19:51:23 .
ISS 22 Jan 19:50:29 19:53:42 68° 132° (SE) 19:56:55 437.550
CUTE 1.7 + AOD 2 22 Jan 19:51:08 19:54:47 28° 263° (W) 19:58:27 437.475
BEESAT 2 22 Jan 20:03:31 20:07:27 58° 62° (ENE) 20:11:18 435.950
PCSat 22 Jan 20:14:41 20:20:01 62° 249° (WSW) 20:25:19 145.827
UWE-3 22 Jan 20:25:06 20:29:08 36° 262° (W) 20:33:18 435.000/436.395/437.385
CUBEBUG 2 22 Jan 20:25:15 20:28:23 19° 265° (W) 20:31:35 437.445
FO-29 22 Jan 20:29:04 20:33:50 36° 99° (E) 20:38:49 435.910
XW-2A 22 Jan 20:31:20 20:34:33 39° 261° (W) 20:37:46 145.665 - 145.685
STRAND 1 22 Jan 20:32:31 20:37:40 75° 285° (WNW) 20:42:47 437.568
ZACube-1 22 Jan 20:43:47 20:48:00 45° 261° (W) 20:52:20 437.345
AAUSAT CUBESAT 2 22 Jan 20:45:15 20:48:44 26° 263° (W) 20:52:14 437.432
AO-73 22 Jan 20:49:13 20:53:26 45° 261° (W) 20:57:45 145.935
DELFI C3 22 Jan 21:02:24 21:05:15 20° 72° (ENE) 21:08:07 145.870
AO-85 22 Jan 21:04:36 21:09:20 39° 59° (ENE) 21:14:17 145.980
nSIGHT-1 22 Jan 21:07:44 21:08:32 11° 326° (NNW) 21:09:20 .
Max Valier Satellite 22 Jan 21:15:20 21:17:50 17° 72° (ENE) 21:20:21 145.860
Oscar 11 22 Jan 21:20:37 21:24:27 31° 262° (W) 21:28:19 .
TIGRISAT 22 Jan 21:25:23 21:26:07 10° 92° (E) 21:26:52 435.000
EO-88 22 Jan 21:29:11 21:31:28 16° 71° (ENE) 21:33:45 145.990 - 145.960
ISS 22 Jan 21:29:44 21:30:28 11° 327° (NNW) 21:31:12 437.550
UNISAT 6 22 Jan 21:38:58 21:42:12 18° 95° (E) 21:45:23 437.425
YUBILEINY 22 Jan 22:05:50 22:11:02 17° 81° (E) 22:16:12 435.215
FO-29 22 Jan 22:15:08 22:18:41 19° 291° (WNW) 22:22:20 435.910
DELFI C3 22 Jan 22:36:56 22:39:49 20° 264° (W) 22:42:43 145.870
LO-87 22 Jan 22:41:44 22:43:42 14° 71° (ENE) 22:45:41 145.935 - 145.965
AO-85 22 Jan 22:45:40 22:49:33 21° 251° (WSW) 22:53:31 145.980
PRISM 22 Jan 22:46:23 22:49:11 18° 96° (E) 22:52:00 437.425
Max Valier Satellite 22 Jan 22:48:37 22:51:26 21° 264° (W) 22:54:17 145.860
TIGRISAT 22 Jan 22:58:26 23:03:02 55° 284° (WNW) 23:07:34 435.000
EO-88 22 Jan 23:02:03 23:04:52 21° 264° (W) 23:07:41 145.990 - 145.960
UNISAT 6 22 Jan 23:14:42 23:18:53 32° 287° (WNW) 23:23:00 437.425
QB50P2 22 Jan 23:42:01 23:43:25 11° 94° (E) 23:44:49 145.880/145.840
AIST 2D 22 Jan 23:47:13 23:50:35 49° 100° (E) 23:53:55 435.315
ESTCUBE 1 22 Jan 23:54:01 23:58:32 72° 258° (WSW) 00:03:03 437.505/2401.250
YUBILEINY 22 Jan 23:57:59 00:06:47 75° 276° (W) 00:15:36 435.215
O/OREOS (USA 219) 22 Jan 23:59:14 00:03:15 33° 104° (ESE) 00:07:16 437.305
DUCHIFAT 1 23 Jan 00:06:54 00:09:25 15° 95° (E) 00:11:55 145.980
EO-79 23 Jan 00:10:13 00:13:41 24° 97° (E) 00:17:07 145.935-145.965
LO-87 23 Jan 00:14:02 00:16:50 22° 263° (W) 00:19:40 145.935 - 145.965
PRISM 23 Jan 00:21:01 00:24:21 24° 288° (WNW) 00:27:41 437.425
NO-84 23 Jan 00:22:58 00:25:20 22° 46° (NE) 00:27:47 435.350 FM
POLYITAN 1 23 Jan 00:45:09 00:49:25 68° 100° (E) 00:53:40 437.675
NANOSAT C BR1 23 Jan 00:58:33 01:02:49 88° 102° (ESE) 01:07:03 145.865
SPROUT 23 Jan 00:59:06 01:03:15 56° 260° (W) 01:07:26 437.525
BUGSAT 1 23 Jan 00:59:46 01:01:42 13° 94° (E) 01:03:37 437.445
AO-91 23 Jan 01:00:03 01:00:34 10° 94° (E) 01:01:05 145.960
